TimeCDT,TemperatureF,Dew PointF,Humidity,Sea Level PressureIn,VisibilityMPH,Wind Direction,Wind SpeedMPH,Gust SpeedMPH,PrecipitationIn,Events,Conditions,WindDirDegrees,DateUTC
12:15 AM,64.4,57.2,77,30.01,10.0,Calm,Calm,-,N/A,,Scattered Clouds,0,2013-06-19 05:15:00
12:35 AM,62.6,57.2,82,30.02,10.0,Calm,Calm,-,N/A,,Scattered Clouds,0,2013-06-19 05:35:00
12:55 AM,62.6,57.2,82,30.02,10.0,Calm,Calm,-,N/A,,Scattered Clouds,0,2013-06-19 05:55:00
1:15 AM,62.6,57.2,82,30.02,10.0,Calm,Calm,-,N/A,,Clear,0,2013-06-19 06:15:00
1:35 AM,62.6,57.2,82,30.04,10.0,Calm,Calm,-,N/A,,Scattered Clouds,0,2013-06-19 06:35:00
1:55 AM,62.6,57.2,82,30.03,10.0,Calm,Calm,-,N/A,,Scattered Clouds,0,2013-06-19 06:55:00
2:15 AM,62.6,57.2,82,30.02,10.0,Calm,Calm,-,N/A,,Scattered Clouds,0,2013-06-19 07:15:00
2:35 AM,62.6,57.2,82,30.02,10.0,Calm,Calm,-,N/A,,Scattered Clouds,0,2013-06-19 07:35:00
2:55 AM,62.6,57.2,82,30.02,10.0,Calm,Calm,-,N/A,,Scattered Clouds,0,2013-06-19 07:55:00
3:15 AM,62.6,57.2,82,30.01,10.0,NE,3.5,-,N/A,,Scattered Clouds,40,2013-06-19 08:15:00
3:35 AM,62.6,57.2,82,30.01,10.0,NE,3.5,-,N/A,,Scattered Clouds,40,2013-06-19 08:35:00
3:55 AM,62.6,57.2,82,30.02,10.0,Calm,Calm,-,N/A,,Scattered Clouds,0,2013-06-19 08:55:00
4:15 AM,62.6,57.2,82,30.02,10.0,Calm,Calm,-,N/A,,Mostly Cloudy,0,2013-06-19 09:15:00
4:35 AM,62.6,57.2,82,30.02,10.0,Calm,Calm,-,N/A,,Mostly Cloudy,0,2013-06-19 09:35:00
4:55 AM,62.6,57.2,82,30.02,10.0,Calm,Calm,-,N/A,,Scattered Clouds,0,2013-06-19 09:55:00
5:15 AM,62.6,57.2,82,30.02,10.0,Calm,Calm,-,N/A,,Scattered Clouds,0,2013-06-19 10:15:00
5:35 AM,62.6,57.2,82,30.03,10.0,ESE,4.6,-,N/A,,Scattered Clouds,120,2013-06-19 10:35:00
5:55 AM,62.6,57.2,82,30.04,10.0,Calm,Calm,-,N/A,,Scattered Clouds,0,2013-06-19 10:55:00
6:15 AM,62.6,57.2,82,30.04,10.0,Calm,Calm,-,N/A,,Mostly Cloudy,0,2013-06-19 11:15:00
6:35 AM,64.4,59.0,83,30.04,10.0,Calm,Calm,-,N/A,,Overcast,0,2013-06-19 11:35:00
6:55 AM,64.4,59.0,83,30.04,10.0,Calm,Calm,-,N/A,,Mostly Cloudy,0,2013-06-19 11:55:00
7:15 AM,66.2,60.8,83,30.03,10.0,SE,4.6,-,N/A,,Scattered Clouds,130,2013-06-19 12:15:00
7:35 AM,66.2,60.8,83,30.04,10.0,SE,5.8,-,N/A,,Scattered Clouds,130,2013-06-19 12:35:00
7:55 AM,68.0,60.8,78,30.05,10.0,Calm,Calm,-,N/A,,Mostly Cloudy,0,2013-06-19 12:55:00
8:15 AM,69.8,60.8,73,30.04,10.0,SSE,6.9,-,N/A,,Scattered Clouds,150,2013-06-19 13:15:00
8:35 AM,71.6,62.6,73,30.04,10.0,SSE,8.1,-,N/A,,Clear,160,2013-06-19 13:35:00
8:55 AM,73.4,62.6,69,30.04,10.0,SSE,6.9,-,N/A,,Clear,150,2013-06-19 13:55:00
9:15 AM,75.2,57.2,53,30.04,10.0,SSE,9.2,-,N/A,,Scattered Clouds,160,2013-06-19 14:15:00
9:35 AM,75.2,55.4,50,30.05,10.0,SSE,12.7,-,N/A,,Scattered Clouds,160,2013-06-19 14:35:00
9:55 AM,75.2,57.2,53,30.05,10.0,SSE,11.5,-,N/A,,Scattered Clouds,150,2013-06-19 14:55:00
10:15 AM,78.8,53.6,42,30.05,10.0,SSE,11.5,-,N/A,,Scattered Clouds,150,2013-06-19 15:15:00
10:35 AM,78.8,55.4,44,30.04,10.0,SSE,15.0,-,N/A,,Clear,150,2013-06-19 15:35:00
10:55 AM,78.8,55.4,44,30.04,10.0,SSE,13.8,-,N/A,,Clear,150,2013-06-19 15:55:00
11:15 AM,78.8,57.2,47,30.04,10.0,South,11.5,18.4,N/A,,Clear,170,2013-06-19 16:15:00
11:35 AM,80.6,57.2,45,30.03,10.0,SSE,15.0,18.4,N/A,,Clear,150,2013-06-19 16:35:00
11:55 AM,80.6,59.0,48,30.02,10.0,South,15.0,-,N/A,,Clear,170,2013-06-19 16:55:00
12:15 PM,82.4,59.0,45,30.02,10.0,SSE,16.1,20.7,N/A,,Clear,160,2013-06-19 17:15:00
12:35 PM,82.4,60.8,48,30.02,10.0,SSE,12.7,-,N/A,,Clear,150,2013-06-19 17:35:00
12:55 PM,82.4,60.8,48,30.01,10.0,South,12.7,18.4,N/A,,Clear,170,2013-06-19 17:55:00
1:15 PM,84.2,62.6,48,30.00,10.0,SSE,13.8,18.4,N/A,,Clear,160,2013-06-19 18:15:00
1:35 PM,84.2,62.6,48,30.00,10.0,South,15.0,20.7,N/A,,Clear,170,2013-06-19 18:35:00
1:55 PM,82.4,62.6,51,29.99,10.0,SSE,11.5,19.6,N/A,,Scattered Clouds,150,2013-06-19 18:55:00
2:15 PM,84.2,62.6,48,29.99,10.0,SSE,11.5,20.7,N/A,,Scattered Clouds,160,2013-06-19 19:15:00
2:35 PM,84.2,60.8,45,29.99,10.0,South,12.7,16.1,N/A,,Clear,180,2013-06-19 19:35:00
2:55 PM,84.2,62.6,48,29.99,10.0,South,13.8,18.4,N/A,,Scattered Clouds,190,2013-06-19 19:55:00
3:15 PM,84.2,60.8,45,29.99,10.0,South,10.4,-,N/A,,Scattered Clouds,180,2013-06-19 20:15:00
3:35 PM,86.0,60.8,43,29.99,7.0,South,15.0,20.7,N/A,,Clear,180,2013-06-19 20:35:00
3:55 PM,86.0,60.8,43,29.98,10.0,SSE,12.7,18.4,N/A,,Clear,150,2013-06-19 20:55:00
4:15 PM,84.2,60.8,45,29.98,10.0,SSE,13.8,18.4,N/A,,Clear,150,2013-06-19 21:15:00
4:35 PM,86.0,60.8,43,29.97,10.0,SSE,16.1,26.5,N/A,,Scattered Clouds,150,2013-06-19 21:35:00
4:55 PM,84.2,60.8,45,29.97,10.0,South,11.5,-,N/A,,Scattered Clouds,170,2013-06-19 21:55:00
5:15 PM,84.2,60.8,45,29.96,10.0,SSE,15.0,-,N/A,,Clear,160,2013-06-19 22:15:00
5:35 PM,86.0,60.8,43,29.96,10.0,SSE,13.8,23.0,N/A,,Scattered Clouds,160,2013-06-19 22:35:00
5:55 PM,84.2,60.8,45,29.95,10.0,SSE,16.1,23.0,N/A,,Clear,160,2013-06-19 22:55:00
6:15 PM,86.0,57.2,37,29.95,10.0,South,15.0,23.0,N/A,,Scattered Clouds,170,2013-06-19 23:15:00
6:35 PM,84.2,60.8,45,29.95,10.0,South,15.0,21.9,N/A,,Scattered Clouds,170,2013-06-19 23:35:00
6:55 PM,84.2,59.0,42,29.95,10.0,South,13.8,19.6,N/A,,Clear,170,2013-06-19 23:55:00
7:15 PM,84.2,62.6,48,29.95,10.0,SSE,11.5,18.4,N/A,,Clear,160,2013-06-20 00:15:00
7:35 PM,84.2,62.6,48,29.95,10.0,South,9.2,-,N/A,,Clear,170,2013-06-20 00:35:00
7:55 PM,82.4,59.0,45,29.94,10.0,South,10.4,-,N/A,,Clear,170,2013-06-20 00:55:00
8:15 PM,82.4,60.8,48,29.95,10.0,South,8.1,-,N/A,,Clear,170,2013-06-20 01:15:00
8:35 PM,80.6,60.8,51,29.95,10.0,SSE,5.8,-,N/A,,Clear,160,2013-06-20 01:35:00
8:55 PM,78.8,60.8,54,29.95,10.0,SSE,5.8,-,N/A,,Clear,150,2013-06-20 01:55:00
9:15 PM,77.0,62.6,61,29.95,10.0,SSE,5.8,-,N/A,,Scattered Clouds,150,2013-06-20 02:15:00
9:35 PM,75.2,60.8,61,29.96,10.0,SE,4.6,-,N/A,,Scattered Clouds,140,2013-06-20 02:35:00
9:55 PM,75.2,62.6,65,29.97,10.0,SSE,6.9,-,N/A,,Scattered Clouds,150,2013-06-20 02:55:00
10:15 PM,75.2,62.6,65,29.98,10.0,SE,6.9,-,N/A,,Scattered Clouds,140,2013-06-20 03:15:00
10:35 PM,75.2,62.6,65,29.98,10.0,SSE,8.1,-,N/A,,Clear,150,2013-06-20 03:35:00
10:55 PM,75.2,64.4,69,29.99,10.0,SE,5.8,-,N/A,,Clear,140,2013-06-20 03:55:00
11:15 PM,73.4,64.4,73,29.99,10.0,SE,4.6,-,N/A,,Clear,130,2013-06-20 04:15:00
11:35 PM,71.6,64.4,78,29.99,10.0,ESE,4.6,-,N/A,,Clear,120,2013-06-20 04:35:00
11:55 PM,71.6,62.6,73,30.00,10.0,SE,4.6,-,N/A,,Scattered Clouds,130,2013-06-20 04:55:00